Weather History for PAMR - February, 2013

Change the Weather History Date:

Wednesday, February 13, 2013

  Actual Average Record
Temperature  
Mean Temperature 28 °F -  
Max Temperature 30 °F 27 °F 30 °F (2015)
Min Temperature 25 °F 14 °F 3 °F (2014)
Degree Days  
Heating Degree Days 38    
Moisture  
Dew Point 24 °F    
Average Humidity 87    
Maximum Humidity 96    
Minimum Humidity 72    
Precipitation  
Precipitation 0.00 in - - ()
Sea Level Pressure  
Sea Level Pressure 29.76 in    
Wind  
Wind Speed 3 mph (North)    
Max Wind Speed 9 mph    
Max Gust Speed -    
Visibility 9 miles    
Events Snow    
Averages and records for this station are not official NWS values.
T = Trace of Precipitation, MM = Missing Value Source: NWS Daily Summary

Daily Weather History Graph

Daily Weather History Graph

Search for Another Location

Airport or City:

Trip Planner

Search our weather history database for the weather conditions in past years. The results will help you decide how hot, cold, wet, or windy it might be!

Date:

Astronomy

Feb. 13, 2013 Rise Set
Actual Time 8:46 AM AKST 5:42 PM AKST
Civil Twilight 8:00 AM AKST 6:28 PM AKST
Nautical Twilight 7:09 AM AKST 7:19 PM AKST
Astronomical Twilight 6:19 AM AKST 8:09 PM AKST
Moon 9:02 AM AKST (2/13) 11:24 PM AKST (2/13)
Length of Visible Light 10h 27m
Length of Day
8h 55m
Waxing Crescent, 15% of the Moon is Illuminated
Feb 13
Waxing Crescent
Feb 17
First Quarter
Feb 25
Full
Mar 4
Last Quarter
Mar 11
New

Hourly Weather History & Observations

Time (AKST) Temp. Windchill Dew Point Humidity Pressure Visibility Wind Dir Wind Speed Gust Speed Precip Events Conditions
12:53 AM 25.0 °F 20.7 °F 23.0 °F 92% 29.75 in 10.0 mi North 3.5 mph - N/A   Overcast
1:53 AM 25.0 °F 20.7 °F 24.1 °F 96% 29.76 in 10.0 mi NNW 3.5 mph - N/A   Overcast
3:53 AM 26.1 °F 20.5 °F 23.0 °F 88% 29.78 in 9.0 mi NNE 4.6 mph - 0.00 in Snow Light Snow
4:53 AM 26.1 °F 21.9 °F 24.1 °F 92% 29.79 in 3.0 mi ENE 3.5 mph - 0.00 in Snow Light Snow
5:53 AM 25.0 °F 20.7 °F 23.0 °F 92% 29.78 in 5.0 mi North 3.5 mph - 0.00 in Snow Light Snow
6:53 AM 25.0 °F - 23.0 °F 92% 29.79 in 10.0 mi Calm Calm - 0.00 in   Overcast
7:53 AM 27.0 °F - 25.0 °F 92% 29.79 in 10.0 mi Calm Calm - N/A   Overcast
8:53 AM 26.1 °F 19.4 °F 24.1 °F 92% 29.80 in 10.0 mi NE 5.8 mph - N/A   Overcast
9:53 AM 26.1 °F 20.5 °F 24.1 °F 92% 29.81 in 10.0 mi NNE 4.6 mph - N/A   Mostly Cloudy
10:53 AM 27.0 °F 21.6 °F 24.1 °F 89% 29.81 in 10.0 mi NNE 4.6 mph - N/A   Partly Cloudy
11:53 AM 28.0 °F - 21.9 °F 78% 29.82 in 10.0 mi Calm Calm - N/A   Scattered Clouds
12:53 PM 28.9 °F 22.8 °F 23.0 °F 78% 29.80 in 10.0 mi NNW 5.8 mph - N/A   Scattered Clouds
1:53 PM 30.0 °F 21.7 °F 21.9 °F 72% 29.78 in 10.0 mi NNW 9.2 mph - N/A   Scattered Clouds
2:53 PM 30.9 °F 27.5 °F 23.0 °F 72% 29.79 in 10.0 mi NW 3.5 mph - N/A   Scattered Clouds
3:53 PM 30.9 °F 27.5 °F 24.1 °F 76% 29.78 in 10.0 mi NNW 3.5 mph - N/A   Mostly Cloudy
4:53 PM 30.0 °F - 26.1 °F 85% 29.77 in 10.0 mi Calm Calm - N/A   Mostly Cloudy
5:53 PM 30.0 °F 25.2 °F 27.0 °F 88% 29.75 in 10.0 mi NNW 4.6 mph - N/A   Mostly Cloudy
6:53 PM 28.9 °F 25.2 °F 26.1 °F 89% 29.74 in 10.0 mi WSW 3.5 mph - N/A   Overcast
7:53 PM 28.0 °F 24.2 °F 26.1 °F 92% 29.72 in 10.0 mi NNW 3.5 mph - N/A   Overcast
8:53 PM 27.0 °F - 26.1 °F 96% 29.71 in 10.0 mi Calm Calm - N/A   Overcast
9:53 PM 28.0 °F 24.2 °F 25.0 °F 88% 29.68 in 10.0 mi North 3.5 mph - N/A   Overcast
10:53 PM 28.0 °F 21.7 °F 25.0 °F 88% 29.67 in 10.0 mi Variable 5.8 mph - N/A   Overcast
11:53 PM 27.0 °F 23.0 °F 24.1 °F 89% 29.66 in 10.0 mi WNW 3.5 mph - N/A   Overcast